| time (UTC) | temp C | wind direction | speed KPH | gust KPH | rain 1hr cm | rain 24hr cm | rain mn cm | humidity % | barometer mb |
| 20260504081509 | 8 | 242 | 4.8 | 11.3 | 0.00 | 0.00 | 0.00 | 52 | 1009.9 |
| 20260504044556 | 7 | 286 | 0.0 | 3.2 | 0.00 | 0.00 | 0.00 | 51 | 1010.1 |
| 20260504043052 | 8 | 286 | 0.0 | 1.6 | 0.00 | 0.00 | 0.00 | 51 | 1010.1 |
| 20260504041543 | 8 | 286 | 0.0 | 3.2 | 0.00 | 0.00 | 0.00 | 53 | 1010.1 |
| 20260504040054 | 8 | 284 | 0.0 | 1.6 | 0.00 | 0.00 | 0.00 | 54 | 1010.1 |
| 20260504034538 | 8 | 285 | 0.0 | 3.2 | 0.00 | 0.00 | 0.00 | 53 | 1010.0 |
| 20260504033029 | 9 | 286 | 0.0 | 3.2 | 0.00 | 0.00 | 0.00 | 53 | 1010.1 |
| 20260504031528 | 10 | 262 | 0.0 | 1.6 | 0.00 | 0.00 | 0.00 | 53 | 1010.1 |
| 20260504030023 | 10 | 283 | 0.0 | 1.6 | 0.00 | 0.00 | 0.00 | 53 | 1010.2 |
| 20260504024516 | 10 | 283 | 1.6 | 3.2 | 0.00 | 0.00 | 0.00 | 53 | 1010.1 |
| 20260504023012 | 10 | 280 | 0.0 | 3.2 | 0.00 | 0.00 | 0.00 | 52 | 1010.4 |
| 20260504021511 | 10 | 279 | 1.6 | 3.2 | 0.00 | 0.00 | 0.00 | 53 | 1010.3 |
| 20260504020004 | 10 | 279 | 0.0 | 3.2 | 0.00 | 0.00 | 0.00 | 52 | 1010.4 |
| 20260504014608 | 11 | 271 | 1.6 | 3.2 | 0.00 | 0.00 | 0.00 | 50 | 1010.2 |
| 20260504013056 | 12 | 280 | 1.6 | 3.2 | 0.00 | 0.00 | 0.00 | 47 | 1010.2 |
| 20260504011550 | 12 | 286 | 0.0 | 6.4 | 0.00 | 0.00 | 0.00 | 44 | 1010.2 |
| 20260504010045 | 12 | 273 | 3.2 | 11.3 | 0.00 | 0.00 | 0.00 | 42 | 1009.9 |
| 20260504004541 | 12 | 276 | 3.2 | 14.5 | 0.00 | 0.00 | 0.00 | 41 | 1009.8 |
| 20260504003036 | 12 | 270 | 3.2 | 9.7 | 0.00 | 0.00 | 0.00 | 42 | 1009.8 |
| 20260504001532 | 12 | 257 | 3.2 | 11.3 | 0.00 | 0.00 | 0.00 | 42 | 1009.5 |
| 20260504000028 | 12 | 246 | 4.8 | 9.7 | 0.00 | 0.00 | 0.00 | 41 | 1009.3 |
| 20260503234526 | 13 | 222 | 3.2 | 6.4 | 0.00 | 0.00 | 0.00 | 40 | 1009.3 |
| 20260503233019 | 13 | 278 | 3.2 | 8.0 | 0.00 | 0.00 | 0.00 | 39 | 1009.2 |
| 20260503231520 | 13 | 278 | 4.8 | 9.7 | 0.00 | 0.00 | 0.00 | 39 | 1009.2 |
| 20260503230013 | 13 | 250 | 1.6 | 11.3 | 0.00 | 0.00 | 0.00 | 39 | 1009.2 |
| 20260503224507 | 13 | 263 | 3.2 | 12.9 | 0.00 | 0.00 | 0.00 | 38 | 1009.3 |
| 20260503223004 | 13 | 266 | 3.2 | 11.3 | 0.00 | 0.00 | 0.00 | 37 | 1009.3 |
| 20260503221602 | 14 | 268 | 4.8 | 14.5 | 0.00 | 0.00 | 0.00 | 36 | 1009.4 |
| 20260503220053 | 14 | 297 | 3.2 | 12.9 | 0.00 | 0.00 | 0.00 | 37 | 1009.6 |
| 20260503214559 | 14 | 349 | 3.2 | 14.5 | 0.00 | 0.00 | 0.00 | 37 | 1009.6 |
| 20260503213047 | 14 | 299 | 6.4 | 14.5 | 0.00 | 0.00 | 0.00 | 38 | 1009.7 |
| 20260503211543 | 13 | 304 | 8.0 | 20.9 | 0.00 | 0.00 | 0.00 | 38 | 1009.6 |
| 20260503210035 | 13 | 300 | 11.3 | 29.0 | 0.00 | 0.00 | 0.00 | 40 | 1009.8 |
| 20260503204533 | 13 | 254 | 16.1 | 22.5 | 0.00 | 0.00 | 0.00 | 39 | 1009.8 |
| 20260503203026 | 13 | 284 | 9.7 | 25.7 | 0.00 | 0.00 | 0.00 | 38 | 1009.7 |
| 20260503201522 | 13 | 319 | 14.5 | 37.0 | 0.00 | 0.00 | 0.00 | 36 | 1009.8 |
| 20260503200018 | 13 | 311 | 6.4 | 20.9 | 0.00 | 0.00 | 0.00 | 34 | 1009.6 |
| 20260503194513 | 13 | 296 | 12.9 | 22.5 | 0.00 | 0.00 | 0.00 | 33 | 1009.8 |
| 20260503193008 | 14 | 360 | 6.4 | 22.5 | 0.00 | 0.00 | 0.00 | 32 | 1010.0 |
| 20260503191504 | 15 | 269 | 14.5 | 24.1 | 0.00 | 0.00 | 0.00 | 30 | 1010.0 |
| 20260503190110 | 14 | 269 | 9.7 | 24.1 | 0.00 | 0.00 | 0.00 | 30 | 1010.2 |
| 20260503184556 | 15 | 265 | 8.0 | 20.9 | 0.00 | 0.00 | 0.00 | 30 | 1010.3 |
| 20260503183100 | 14 | 270 | 9.7 | 27.4 | 0.00 | 0.00 | 0.00 | 30 | 1010.5 |
| 20260503181545 | 15 | 274 | 8.0 | 20.9 | 0.00 | 0.00 | 0.00 | 30 | 1010.7 |
| 20260503180053 | 14 | 316 | 6.4 | 22.5 | 0.00 | 0.00 | 0.00 | 31 | 1010.8 |
| 20260503174537 | 13 | 313 | 8.0 | 19.3 | 0.00 | 0.00 | 0.00 | 32 | 1011.2 |
| 20260503173034 | 13 | 217 | 9.7 | 27.4 | 0.00 | 0.00 | 0.00 | 34 | 1011.5 |
| 20260503171538 | 12 | 285 | 9.7 | 32.2 | 0.00 | 0.00 | 0.00 | 35 | 1011.6 |